Wind_Speed
10 15 15 13 11 18 24 28 32 35 35 32 34 36 32 28 26 32 33 28 32 38 42 44 43 40 38 33 31 31 31 31 36 39 39 43 45 40 33 29 29 36 36 35
12 17 10 12 15 23 27 32 39 45 32 27 35 44 37 36 37 35 33 35 39 39 44 45 44 39 33 30 30 31 31 31 32 34 36 41 41 46 41 35 32 34 36 35
21 26 16 18 26 27 28 30 32 33 34 32 35 47 35 28 22 24 34 30 39 42 44 45 44 41 36 26 25 29 33 34 32 31 32 34 38 43 44 39 34 37 37 38
21 17 14 17 29 26 34 25 27 32 33 26 27 29 39 40 42 34 31 34 40 41 43 44 43 38 33 24 26 28 31 33 32 29 28 31 35 38 40 37 34 36 34 35
24 22 21 24 21 21 31 30 30 32 34 38 37 23 41 37 35 29 28 34 37 36 38 36 30 29 25 22 23 27 30 31 30 29 27 27 32 34 35 33 36 33 31 32
24 20 18 21 22 16 22 25 23 25 22 11 17 20 13 12 14 13 22 27 31 30 29 27 22 20 18 17 18 21 22 27 28 28 28 26 27 31 30 28 33 31 33 33
29 22 10 15 20 19 15 29 11 7 2 8 15 28 28 38 21 21 26 31 36 36 32 26 22 23 19 19 23 22 21 24 26 25 27 26 23 26 26 27 30 30 33 30
17 9 7 14 23 24 30 11 6 8 11 17 29 13 29 22 16 12 11 16 24 31 29 27 21 13 19 20 27 25 25 27 26 24 25 21 23 23 23 23 29 31 31 27
17 14 17 26 30 26 25 23 19 24 30 18 18 27 7 15 18 14 6 6 10 13 14 18 23 22 23 24 24 26 26 25 29 27 27 21 20 21 14 19 22 25 25 24
14 29 18 17 23 19 16 20 21 16 4 5 7 13 8 15 16 20 13 13 25 30 27 27 26 30 28 30 26 29 32 34 33 31 25 26 19 18 14 16 17 18 20 19
22 21 32 33 15 20 23 24 23 17 10 3 4 6 9 9 7 14 14 17 20 24 27 29 29 24 25 25 23 27 26 26 26 28 26 25 24 12 14 17 18 20 19 24
15 12 23 30 33 22 20 14 11 8 8 13 15 14 17 5 4 2 12 20 22 24 27 27 26 24 21 19 20 20 21 22 24 25 24 26 22 22 19 20 23 20 15 17
24 8 13 20 20 13 25 33 34 29 24 22 12 12 13 19 19 14 16 24 22 26 29 24 22 22 24 20 20 21 21 23 22 22 22 20 18 17 19 17 16 15 11 15
18 18 23 18 27 29 36 36 35 30 18 25 25 30 36 30 27 23 25 19 22 25 24 23 23 22 24 20 16 15 18 22 22 18 16 10 7 13 19 22 16 18 15 13
18 23 27 31 31 31 34 35 33 31 35 29 37 32 30 24 21 20 20 21 23 22 22 22 25 20 20 20 13 14 17 21 21 16 15 9 4 11 21 17 19 17 15 12
20 30 28 40 36 29 26 27 28 30 32 32 32 36 29 25 18 14 16 21 25 25 20 22 23 23 20 21 20 16 17 18 22 12 18 12 10 4 15 17 14 15 13 13
36 32 27 35 29 23 22 22 16 13 17 17 25 25 23 18 17 17 19 17 21 20 18 21 21 23 23 23 25 30 24 17 21 13 17 18 9 8 5 6 13 11 13 14
31 33 28 26 21 5 17 6 16 20 18 16 17 16 16 14 15 16 17 22 23 21 18 18 20 24 23 26 28 31 27 20 17 17 19 20 8 9 10 5 11 12 10 16
17 20 22 15 11 22 28 18 18 14 17 9 14 13 16 17 19 15 15 17 20 18 18 22 24 25 25 29 29 30 21 17 18 19 22 24 14 11 11 9 13 11 13 21
13 13 21 12 5 5 2 10 11 13 7 12 13 12 11 11 14 15 18 20 19 18 19 20 25 30 29 30 35 32 23 13 18 18 21 23 17 19 10 14 20 13 15 19
17 16 24 24 10 14 16 12 13 5 5 12 18 10 12 16 19 21 23 22 22 21 18 20 24 28 31 34 37 39 25 14 19 15 22 30 18 11 13 17 19 18 20 21
24 14 8 9 8 9 6 11 13 12 14 17 19 16 16 20 25 27 24 22 21 20 22 24 26 29 32 32 39 44 25 18 22 15 27 29 18 19 8 11 18 18 19 25
10 10 7 9 10 11 6 9 14 17 18 19 21 21 22 21 19 20 19 18 19 21 24 24 27 28 27 35 41 36 20 22 25 20 30 27 26 18 15 16 22 25 27 26
28 30 21 15 19 14 18 14 12 17 21 21 21 23 21 19 16 17 16 16 18 20 21 24 25 28 40 31 27 31 17 28 29 29 35 30 25 24 22 26 20 19 22 23
29 23 28 28 17 13 14 13 9 13 17 18 22 23 21 16 14 14 16 17 21 23 23 24 30 40 31 26 21 19 22 32 32 34 32 31 27 22 24 25 20 18 19 14
26 25 24 31 18 7 12 14 10 14 16 16 19 18 18 15 12 15 18 21 24 26 25 30 40 37 25 10 10 11 31 29 29 38 33 34 19 29 24 29 26 24 21 27
Wind_Direction
327 312 314 320 293 285 286 286 290 293 303 298 293 287 289 287 279 276 286 272 260 256 258 260 264 277 277 270 267 266 265 260 252 248 251 258 267 269 259 255 254 274 253 276
314 300 322 296 292 288 289 290 295 301 306 298 293 284 284 281 283 286 282 268 257 261 256 257 263 275 278 274 279 281 277 272 267 264 257 252 251 255 258 261 261 262 259 262
310 309 298 269 283 291 288 287 294 292 297 288 291 286 289 288 294 286 291 270 250 249 250 256 264 269 272 278 287 296 297 293 286 278 269 261 256 252 255 256 257 264 259 256
307 309 300 280 293 298 295 296 285 289 301 303 298 296 294 298 300 288 270 255 247 238 242 249 255 260 270 275 287 296 294 291 287 284 279 271 261 256 254 253 255 259 262 263
300 303 311 312 308 303 294 290 289 289 293 297 289 277 288 302 302 287 257 241 236 238 244 248 249 255 259 267 284 287 285 287 290 291 287 280 268 262 255 251 250 251 261 267
303 304 303 289 303 293 283 294 300 295 291 272 295 306 323 331 319 254 221 227 234 241 247 250 252 249 254 267 274 274 286 291 291 293 292 291 281 266 256 247 251 251 255 257
302 316 256 278 296 314 318 325 323 305 259 262 304 311 291 297 281 258 239 231 241 245 247 241 238 246 255 278 272 272 281 290 292 288 289 293 292 272 256 242 246 249 249 252
312 308 269 308 329 325 323 329 272 281 293 293 300 278 299 269 249 204 217 236 245 258 277 293 289 277 284 280 279 285 279 280 289 289 281 286 289 280 253 241 246 244 251 257
308 275 265 287 294 311 312 301 310 287 284 287 273 278 208 238 214 200 211 239 246 266 279 303 315 314 294 283 290 292 289 286 289 285 280 273 281 282 278 255 256 255 257 262
286 295 303 297 308 314 292 302 309 286 303 258 260 268 279 229 236 240 255 296 325 323 317 317 310 308 303 304 306 300 296 288 281 282 277 268 266 275 267 264 252 248 260 270
304 301 295 307 318 319 311 296 294 283 251 291 301 257 303 303 327 356 352 350 332 325 319 321 318 313 304 302 302 293 287 276 267 267 264 266 258 265 258 258 246 250 255 273
313 297 293 300 307 308 294 298 301 289 278 271 286 289 290 176 104 336 320 321 311 312 317 319 310 309 310 305 298 286 283 275 264 259 253 254 257 252 250 256 251 248 258 288
305 298 310 313 314 291 304 297 300 300 284 262 258 276 273 278 273 313 315 311 308 317 323 318 311 309 311 311 304 293 285 276 270 257 247 248 251 272 252 252 216 216 257 258
302 290 294 269 283 300 299 302 295 288 264 273 260 278 289 286 294 304 303 294 309 320 326 324 323 314 310 311 298 292 288 278 276 255 244 241 256 287 263 254 201 200 204 216
291 292 298 293 292 299 299 297 296 285 281 264 285 288 294 303 313 291 283 294 307 315 328 339 343 327 319 318 311 318 295 281 277 259 226 204 237 316 336 170 179 180 188 198
289 290 293 292 298 299 303 297 291 284 282 282 285 286 298 308 289 271 283 296 306 308 316 334 342 347 314 312 324 321 312 296 276 259 218 208 216 287 299 183 173 190 199 209
284 280 280 284 292 293 291 301 305 293 295 295 279 298 303 283 274 282 296 298 297 303 312 321 329 329 340 332 320 313 311 313 278 264 207 207 226 234 268 186 158 174 186 176
273 271 274 278 283 249 291 282 289 290 296 303 289 294 298 289 296 309 300 299 304 292 306 310 314 315 326 325 327 322 302 310 280 263 203 197 201 198 202 198 182 160 174 179
279 257 258 259 267 282 296 302 276 283 321 312 327 307 293 291 286 298 302 310 315 313 301 305 308 306 320 318 326 327 306 297 275 258 204 199 218 180 206 182 175 174 188 160
292 251 240 255 240 249 267 319 318 311 306 314 328 313 304 282 293 296 297 303 297 296 299 303 306 310 321 318 328 329 310 273 256 245 207 189 203 203 210 191 174 175 169 153
269 234 234 248 265 277 257 270 303 285 292 309 322 310 280 287 290 299 311 313 314 305 296 293 299 311 314 311 314 320 309 251 230 236 197 199 169 178 205 195 187 179 168 171
269 237 227 226 237 269 263 264 284 294 307 314 317 305 285 288 293 297 301 310 309 296 290 295 307 306 304 306 305 307 298 227 217 217 194 192 176 169 194 227 166 180 166 164
307 292 281 247 268 288 234 268 288 291 306 313 315 313 310 304 304 310 313 309 310 310 311 314 306 302 307 306 302 295 283 219 207 199 191 196 188 179 186 190 171 173 180 183
291 297 256 270 286 296 257 264 284 284 291 304 311 321 321 319 330 329 328 331 333 334 327 318 318 318 314 307 295 279 256 202 192 190 184 182 182 166 184 167 168 161 165 171
282 281 297 294 296 264 244 272 280 286 292 301 309 316 324 324 333 334 335 338 342 340 333 327 327 325 323 315 288 274 198 190 185 184 190 191 174 188 172 154 163 163 156 147
277 286 273 278 283 307 314 300 271 287 301 295 302 319 329 324 332 336 336 343 343 343 335 332 333 342 331 317 267 189 178 184 189 186 167 163 170 157 167 159 157 153 154 148
Height
3128 3129 3129 3129 3129 3127 3126 3123 3119 3118 3119 3114 3110 3103 3106 3107 3106 3104 3103 3101 3094 3090 3087 3084 3086 3087 3088 3087 3086 3084 3084 3084 3083 3083 3083 3081 3080 3080 3084 3088 3091 3090 3094 3094
3128 3125 3125 3124 3123 3122 3121 3117 3111 3105 3108 3108 3103 3092 3099 3100 3099 3097 3094 3092 3086 3082 3079 3078 3080 3081 3080 3080 3079 3078 3076 3075 3075 3074 3074 3075 3077 3075 3077 3081 3084 3084 3085 3082
3124 3124 3123 3122 3119 3116 3114 3112 3107 3105 3100 3099 3094 3079 3088 3091 3091 3088 3084 3083 3079 3074 3071 3071 3073 3074 3074 3072 3072 3071 3070 3068 3067 3067 3065 3066 3066 3069 3069 3075 3077 3075 3075 3073
3120 3120 3118 3116 3114 3113 3105 3107 3102 3099 3096 3092 3093 3071 3080 3080 3081 3079 3075 3072 3069 3066 3064 3065 3067 3067 3067 3066 3065 3064 3063 3061 3060 3060 3059 3058 3057 3058 3061 3066 3068 3066 3068 3069
3115 3114 3112 3110 3107 3107 3102 3100 3097 3094 3092 3088 3084 3085 3072 3075 3071 3073 3066 3064 3061 3059 3059 3059 3059 3059 3059 3060 3060 3060 3057 3056 3054 3054 3052 3051 3049 3049 3054 3057 3059 3060 3063 3063
3110 3110 3110 3103 3101 3098 3095 3093 3090 3087 3087 3080 3079 3079 3070 3069 3070 3065 3059 3057 3056 3054 3053 3052 3053 3053 3053 3053 3055 3055 3053 3051 3049 3048 3047 3044 3042 3043 3046 3049 3052 3054 3056 3056
3104 3103 3102 3099 3095 3095 3092 3091 3087 3083 3081 3076 3076 3074 3072 3068 3065 3061 3055 3051 3050 3047 3044 3044 3043 3046 3045 3047 3050 3049 3048 3046 3043 3043 3042 3041 3037 3036 3039 3042 3044 3048 3046 3050
3099 3095 3099 3097 3095 3093 3090 3092 3095 3087 3082 3074 3074 3068 3065 3063 3059 3057 3053 3049 3048 3045 3044 3042 3036 3036 3044 3043 3041 3043 3042 3041 3039 3037 3037 3037 3034 3031 3032 3035 3037 3039 3042 3045
3101 3094 3093 3095 3095 3096 3089 3087 3088 3083 3075 3071 3066 3064 3059 3055 3051 3050 3049 3046 3042 3041 3042 3043 3043 3040 3036 3035 3038 3036 3035 3034 3032 3031 3032 3032 3031 3027 3028 3031 3032 3032 3035 3039
3099 3089 3088 3088 3090 3091 3090 3087 3081 3079 3073 3065 3058 3056 3052 3052 3051 3048 3045 3041 3042 3040 3039 3040 3038 3035 3031 3030 3029 3027 3026 3026 3025 3025 3026 3025 3026 3025 3025 3029 3029 3031 3032 3035
3095 3092 3083 3083 3085 3083 3080 3080 3079 3077 3072 3063 3059 3054 3050 3048 3049 3048 3047 3044 3040 3036 3035 3035 3031 3027 3025 3024 3023 3019 3018 3017 3016 3017 3019 3018 3020 3021 3022 3024 3025 3028 3029 3032
3090 3087 3082 3080 3078 3079 3077 3074 3074 3072 3067 3062 3062 3054 3051 3046 3046 3047 3043 3043 3038 3035 3034 3032 3025 3021 3021 3018 3016 3013 3011 3010 3006 3010 3012 3012 3013 3015 3017 3019 3022 3024 3027 3029
3086 3083 3081 3076 3075 3075 3073 3070 3069 3068 3063 3057 3058 3053 3048 3046 3044 3043 3043 3039 3035 3032 3029 3025 3019 3015 3013 3013 3010 3008 3006 3003 3000 3004 3005 3006 3007 3008 3011 3013 3018 3020 3024 3025
3083 3080 3080 3078 3072 3071 3065 3061 3061 3062 3056 3052 3048 3045 3044 3043 3040 3040 3039 3034 3031 3027 3025 3019 3014 3010 3007 3007 3005 3002 3000 2998 2997 2998 3001 3003 3005 3004 3004 3010 3013 3016 3020 3023
3079 3074 3073 3068 3066 3064 3060 3056 3053 3052 3048 3046 3040 3039 3037 3038 3036 3033 3032 3030 3027 3024 3021 3015 3011 3006 3003 3001 2999 2997 2994 2992 2992 2994 2997 3001 3002 3001 2994 3002 3009 3013 3016 3019
3073 3068 3067 3059 3060 3056 3051 3049 3046 3044 3041 3038 3035 3030 3033 3033 3031 3029 3028 3025 3023 3021 3017 3013 3009 3005 3001 2999 2996 2993 2991 2990 2988 2990 2996 2998 3000 3001 2995 3002 3006 3010 3014 3019
3067 3064 3062 3052 3055 3051 3046 3043 3042 3039 3037 3034 3031 3030 3028 3027 3026 3025 3023 3021 3019 3017 3014 3011 3007 3003 3000 2996 2992 2989 2987 2988 2985 2988 2991 2994 2998 2997 2999 2996 3005 3009 3012 3016
3057 3057 3058 3052 3050 3046 3040 3039 3038 3037 3034 3032 3029 3028 3026 3025 3023 3021 3019 3017 3016 3014 3010 3008 3005 3001 2998 2994 2990 2985 2982 2984 2983 2984 2986 2991 2995 2997 3000 3001 3006 3008 3011 3013
3051 3051 3051 3050 3046 3041 3038 3034 3034 3034 3032 3028 3027 3025 3023 3022 3021 3019 3016 3014 3012 3009 3007 3004 3001 2997 2995 2990 2986 2980 2976 2978 2978 2979 2982 2987 2990 2996 2999 3001 3005 3008 3009 3011
3047 3046 3048 3044 3043 3040 3035 3035 3034 3032 3030 3027 3026 3024 3021 3019 3018 3016 3013 3011 3008 3005 3003 2999 2996 2992 2989 2984 2979 2975 2971 2972 2973 2976 2979 2985 2989 2993 2996 3001 3002 3007 3009 3013
3042 3041 3040 3040 3039 3035 3033 3033 3033 3032 3033 3026 3024 3022 3020 3018 3017 3014 3011 3007 3004 3000 2996 2994 2992 2989 2984 2979 2973 2969 2966 2968 2969 2972 2977 2982 2986 2990 2995 2998 2999 3006 3010 3014
3037 3035 3033 3035 3037 3033 3029 3031 3033 3030 3027 3025 3022 3019 3018 3016 3014 3010 3006 3003 2999 2995 2991 2989 2987 2983 2978 2974 2967 2960 2959 2961 2964 2969 2973 2979 2983 2988 2993 2995 3001 3006 3010 3015
3035 3035 3033 3033 3029 3029 3028 3028 3029 3027 3025 3023 3021 3018 3015 3013 3008 3005 3001 2998 2994 2991 2987 2984 2979 2975 2971 2966 2958 2950 2951 2953 2959 2965 2971 2976 2981 2987 2993 2997 3001 3006 3011 3016
3031 3031 3026 3026 3024 3025 3024 3025 3025 3024 3023 3020 3018 3015 3012 3008 3004 3001 2998 2995 2992 2988 2982 2977 2972 2967 2961 2953 2947 2941 2941 2946 2954 2962 2969 2974 2980 2987 2992 2997 3001 3006 3011 3015
3027 3026 3022 3019 3020 3021 3021 3023 3022 3021 3020 3018 3016 3013 3010 3006 3003 3000 2997 2993 2989 2984 2978 2972 2966 2959 2948 2941 2934 2931 2934 2942 2950 2959 2966 2970 2976 2982 2992 2997 3004 3008 3012 3018
3020 3020 3018 3013 3019 3018 3019 3018 3019 3019 3018 3016 3014 3011 3008 3005 3001 2999 2996 2992 2986 2980 2974 2968 2960 2948 2938 2930 2925 2925 2933 2941 2948 2958 2963 2971 2976 2984 2992 2998 3002 3008 3016 3020